| time (UTC) | temp F | wind direction | speed MPH | gust MPH | rain 1hr in | rain 24hr in | rain mn in | humidity % | barometer mb |
| 20260510115654 | 52 | 351 | 0.0 | 0.0 | 0.00 | 0.00 | 0.00 | 37 | 1012.6 |
| 20260510115139 | 52 | 351 | 0.0 | 0.0 | 0.00 | 0.00 | 0.00 | 37 | 1012.6 |
| 20260510114647 | 52 | 351 | 0.0 | 0.0 | 0.00 | 0.00 | 0.00 | 37 | 1012.6 |
| 20260510114139 | 52 | 351 | 0.0 | 0.0 | 0.00 | 0.00 | 0.00 | 37 | 1012.7 |
| 20260510113637 | 52 | 351 | 0.0 | 0.0 | 0.00 | 0.00 | 0.00 | 36 | 1012.7 |
| 20260510113129 | 53 | 351 | 0.0 | 0.0 | 0.00 | 0.00 | 0.00 | 35 | 1012.8 |
| 20260510112630 | 53 | 351 | 0.0 | 0.0 | 0.00 | 0.00 | 0.00 | 35 | 1012.9 |
| 20260510112543 | 53 | 351 | 0.0 | 1.0 | 0.00 | 0.00 | 0.00 | 35 | 1013.1 |
| 20260510111830 | 54 | 351 | 1.0 | 5.0 | 0.00 | 0.00 | 0.00 | 35 | 1012.9 |
| 20260510111104 | 54 | 351 | 2.0 | 5.0 | 0.00 | 0.00 | 0.00 | 35 | 1012.9 |
| 20260510110555 | 54 | 351 | 1.0 | 4.0 | 0.00 | 0.00 | 0.00 | 35 | 1012.7 |
| 20260510110049 | 54 | 351 | 0.0 | 1.0 | 0.00 | 0.00 | 0.00 | 34 | 1012.7 |
| 20260510105543 | 54 | 351 | 1.0 | 2.0 | 0.00 | 0.00 | 0.00 | 34 | 1013.1 |
| 20260510105300 | 54 | 351 | 1.0 | 4.0 | 0.00 | 0.00 | 0.00 | 34 | 1013.1 |
| 20260510104537 | 55 | 351 | 1.0 | 4.0 | 0.00 | 0.00 | 0.00 | 34 | 1013.1 |
| 20260510104034 | 55 | 351 | 1.0 | 3.0 | 0.00 | 0.00 | 0.00 | 34 | 1013.1 |
| 20260510103533 | 55 | 351 | 0.0 | 3.0 | 0.00 | 0.00 | 0.00 | 33 | 1013.1 |
| 20260510103032 | 56 | 351 | 0.0 | 0.0 | 0.00 | 0.00 | 0.00 | 34 | 1013.2 |
| 20260510102532 | 56 | 351 | 0.0 | 2.0 | 0.00 | 0.00 | 0.00 | 33 | 1013.3 |
| 20260510102037 | 56 | 351 | 0.0 | 2.0 | 0.00 | 0.00 | 0.00 | 32 | 1013.6 |
| 20260510101516 | 56 | 351 | 0.0 | 0.0 | 0.00 | 0.00 | 0.00 | 32 | 1013.8 |
| 20260510101011 | 57 | 351 | 0.0 | 1.0 | 0.00 | 0.00 | 0.00 | 32 | 1013.8 |
| 20260510100739 | 57 | 351 | 0.0 | 1.0 | 0.00 | 0.00 | 0.00 | 32 | 1013.9 |
| 20260510100226 | 57 | 351 | 0.0 | 3.0 | 0.00 | 0.00 | 0.00 | 31 | 1013.9 |
| 20260510095502 | 58 | 351 | 1.0 | 5.0 | 0.00 | 0.00 | 0.00 | 32 | 1014.0 |
| 20260510095000 | 58 | 351 | 1.0 | 5.0 | 0.00 | 0.00 | 0.00 | 31 | 1014.0 |
| 20260510094506 | 58 | 351 | 0.0 | 2.0 | 0.00 | 0.00 | 0.00 | 31 | 1014.0 |
| 20260510094003 | 58 | 351 | 0.0 | 2.0 | 0.00 | 0.00 | 0.00 | 30 | 1014.0 |
| 20260510093449 | 58 | 351 | 0.0 | 1.0 | 0.00 | 0.00 | 0.00 | 30 | 1014.0 |
| 20260510093208 | 58 | 351 | 1.0 | 5.0 | 0.00 | 0.00 | 0.00 | 30 | 1013.9 |
| 20260510092450 | 58 | 351 | 1.0 | 5.0 | 0.00 | 0.00 | 0.00 | 30 | 1013.9 |
| 20260510091943 | 58 | 351 | 0.0 | 0.0 | 0.00 | 0.00 | 0.00 | 30 | 1013.8 |
| 20260510091431 | 58 | 351 | 0.0 | 1.0 | 0.00 | 0.00 | 0.00 | 30 | 1013.7 |
| 20260510090930 | 58 | 351 | 0.0 | 3.0 | 0.00 | 0.00 | 0.00 | 31 | 1013.7 |
| 20260510090654 | 58 | 351 | 0.0 | 3.0 | 0.00 | 0.00 | 0.00 | 30 | 1013.4 |
| 20260510085932 | 58 | 351 | 1.0 | 5.0 | 0.00 | 0.00 | 0.00 | 30 | 1013.6 |
| 20260510085431 | 58 | 351 | 2.0 | 5.0 | 0.00 | 0.00 | 0.00 | 30 | 1013.3 |
| 20260510084931 | 57 | 5 | 1.0 | 6.0 | 0.00 | 0.00 | 0.00 | 31 | 1013.1 |
| 20260510084430 | 57 | 9 | 0.0 | 6.0 | 0.00 | 0.00 | 0.00 | 32 | 1012.8 |
| 20260510083931 | 56 | 35 | 0.0 | 0.0 | 0.00 | 0.00 | 0.00 | 32 | 1012.8 |
| 20260510083427 | 56 | 35 | 0.0 | 0.0 | 0.00 | 0.00 | 0.00 | 32 | 1012.6 |
| 20260510082915 | 56 | 35 | 0.0 | 0.0 | 0.00 | 0.00 | 0.00 | 32 | 1012.6 |
| 20260510082627 | 56 | 35 | 0.0 | 0.0 | 0.00 | 0.00 | 0.00 | 32 | 1012.3 |
| 20260510081903 | 56 | 35 | 0.0 | 0.0 | 0.00 | 0.00 | 0.00 | 31 | 1012.5 |
| 20260510081404 | 56 | 35 | 0.0 | 0.0 | 0.00 | 0.00 | 0.00 | 31 | 1012.7 |
| 20260510080904 | 57 | 35 | 0.0 | 0.0 | 0.00 | 0.00 | 0.00 | 32 | 1012.7 |
| 20260510080402 | 57 | 35 | 0.0 | 0.0 | 0.00 | 0.00 | 0.00 | 31 | 1012.7 |
| 20260510075902 | 57 | 35 | 0.0 | 0.0 | 0.00 | 0.00 | 0.00 | 31 | 1012.8 |
| 20260510075403 | 57 | 35 | 0.0 | 0.0 | 0.00 | 0.00 | 0.00 | 31 | 1013.1 |
| 20260510074903 | 57 | 35 | 0.0 | 0.0 | 0.00 | 0.00 | 0.00 | 30 | 1013.1 |
| 20260510074404 | 58 | 35 | 0.0 | 0.0 | 0.00 | 0.00 | 0.00 | 30 | 1013.2 |
| 20260510073902 | 58 | 35 | 0.0 | 0.0 | 0.00 | 0.00 | 0.00 | 30 | 1013.2 |
| 20260510073333 | 58 | 35 | 0.0 | 0.0 | 0.00 | 0.00 | 0.00 | 29 | 1013.3 |
| 20260510072832 | 58 | 35 | 0.0 | 0.0 | 0.00 | 0.00 | 0.00 | 29 | 1013.3 |
| 20260510072331 | 59 | 35 | 0.0 | 0.0 | 0.00 | 0.00 | 0.00 | 29 | 1013.7 |
| 20260510071832 | 59 | 35 | 0.0 | 0.0 | 0.00 | 0.00 | 0.00 | 28 | 1013.8 |
| 20260510071329 | 60 | 35 | 0.0 | 0.0 | 0.00 | 0.00 | 0.00 | 28 | 1013.9 |
| 20260510071039 | 60 | 35 | 0.0 | 0.0 | 0.00 | 0.00 | 0.00 | 27 | 1014.4 |
| 20260510070538 | 61 | 35 | 0.0 | 0.0 | 0.00 | 0.00 | 0.00 | 27 | 1014.6 |
| 20260510070021 | 62 | 35 | 0.0 | 0.0 | 0.00 | 0.00 | 0.00 | 26 | 1014.9 |
| 20260510065306 | 62 | 35 | 0.0 | 0.0 | 0.00 | 0.00 | 0.00 | 26 | 1015.0 |
| 20260510064803 | 62 | 35 | 0.0 | 0.0 | 0.00 | 0.00 | 0.00 | 25 | 1014.8 |
| 20260510064259 | 63 | 35 | 0.0 | 2.0 | 0.00 | 0.00 | 0.00 | 25 | 1015.0 |
| 20260510063758 | 63 | 35 | 1.0 | 5.0 | 0.00 | 0.00 | 0.00 | 25 | 1015.3 |
| 20260510063730 | 63 | 35 | 2.0 | 5.0 | 0.00 | 0.00 | 0.00 | 25 | 1015.3 |
| 20260510063452 | 64 | 35 | 1.0 | 6.0 | 0.00 | 0.00 | 0.00 | 25 | 1015.5 |
| 20260510062235 | 64 | 35 | 2.0 | 6.0 | 0.00 | 0.00 | 0.00 | 25 | 1015.4 |
| 20260510061732 | 64 | 36 | 2.0 | 6.0 | 0.00 | 0.00 | 0.00 | 25 | 1015.4 |
| 20260510061231 | 64 | 36 | 2.0 | 7.0 | 0.00 | 0.00 | 0.00 | 25 | 1015.5 |
| 20260510060732 | 64 | 36 | 3.0 | 8.0 | 0.00 | 0.00 | 0.00 | 24 | 1015.6 |
| 20260510060228 | 64 | 41 | 3.0 | 8.0 | 0.00 | 0.00 | 0.00 | 25 | 1015.6 |
| 20260510055725 | 64 | 51 | 2.0 | 7.0 | 0.00 | 0.00 | 0.00 | 25 | 1015.7 |
| 20260510055650 | 65 | 39 | 2.0 | 6.0 | 0.00 | 0.00 | 0.00 | 25 | 1015.9 |
| 20260510055644 | 65 | 39 | 3.0 | 9.0 | 0.00 | 0.00 | 0.00 | 24 | 1015.9 |
| 20260510054209 | 65 | 39 | 3.0 | 9.0 | 0.00 | 0.00 | 0.00 | 25 | 1015.9 |
| 20260510053938 | 64 | 27 | 3.0 | 8.0 | 0.00 | 0.00 | 0.00 | 25 | 1015.7 |
| 20260510053203 | 64 | 28 | 3.0 | 8.0 | 0.00 | 0.00 | 0.00 | 25 | 1015.7 |
| 20260510052703 | 64 | 26 | 3.0 | 8.0 | 0.00 | 0.00 | 0.00 | 25 | 1015.6 |
| 20260510052202 | 64 | 26 | 2.0 | 7.0 | 0.00 | 0.00 | 0.00 | 25 | 1015.7 |
| 20260510051703 | 65 | 25 | 2.0 | 6.0 | 0.00 | 0.00 | 0.00 | 24 | 1016.0 |
| 20260510051202 | 65 | 25 | 2.0 | 5.0 | 0.00 | 0.00 | 0.00 | 24 | 1016.0 |
| 20260510050644 | 65 | 25 | 3.0 | 6.0 | 0.00 | 0.00 | 0.00 | 24 | 1016.0 |
| 20260510050143 | 65 | 25 | 3.0 | 7.0 | 0.00 | 0.00 | 0.00 | 23 | 1016.0 |
| 20260510045642 | 65 | 24 | 2.0 | 7.0 | 0.00 | 0.00 | 0.00 | 23 | 1016.2 |
| 20260510045138 | 66 | 22 | 3.0 | 7.0 | 0.00 | 0.00 | 0.00 | 23 | 1016.2 |
| 20260510044634 | 66 | 22 | 4.0 | 10.0 | 0.00 | 0.00 | 0.00 | 23 | 1016.3 |
| 20260510044132 | 66 | 11 | 4.0 | 10.0 | 0.00 | 0.00 | 0.00 | 23 | 1016.2 |
| 20260510043631 | 66 | 0 | 4.0 | 10.0 | 0.00 | 0.00 | 0.00 | 23 | 1016.2 |
| 20260510043131 | 65 | 0 | 4.0 | 10.0 | 0.00 | 0.00 | 0.00 | 23 | 1016.0 |
| 20260510042631 | 65 | 28 | 3.0 | 7.0 | 0.00 | 0.00 | 0.00 | 22 | 1015.7 |
| 20260510042132 | 65 | 355 | 3.0 | 7.0 | 0.00 | 0.00 | 0.00 | 22 | 1015.6 |
| 20260510041631 | 64 | 349 | 3.0 | 7.0 | 0.00 | 0.00 | 0.00 | 22 | 1015.4 |
| 20260510041131 | 64 | 348 | 3.0 | 6.0 | 0.00 | 0.00 | 0.00 | 21 | 1015.1 |
| 20260510040632 | 63 | 325 | 1.0 | 6.0 | 0.00 | 0.00 | 0.00 | 20 | 1014.9 |
| 20260510040131 | 64 | 305 | 1.0 | 3.0 | 0.00 | 0.00 | 0.00 | 18 | 1014.9 |
| 20260510035631 | 64 | 305 | 1.0 | 4.0 | 0.00 | 0.00 | 0.00 | 18 | 1014.9 |
| 20260510035132 | 64 | 305 | 2.0 | 5.0 | 0.00 | 0.00 | 0.00 | 18 | 1015.0 |
| 20260510034854 | 64 | 305 | 2.0 | 6.0 | 0.00 | 0.00 | 0.00 | 18 | 1015.0 |
| 20260510034130 | 65 | 305 | 3.0 | 6.0 | 0.00 | 0.00 | 0.00 | 18 | 1015.0 |
| 20260510033629 | 65 | 305 | 2.0 | 6.0 | 0.00 | 0.00 | 0.00 | 17 | 1014.9 |
| 20260510033125 | 65 | 305 | 2.0 | 6.0 | 0.00 | 0.00 | 0.00 | 17 | 1014.9 |
| 20260510032844 | 65 | 305 | 2.0 | 5.0 | 0.00 | 0.00 | 0.00 | 17 | 1014.9 |
| 20260510032121 | 65 | 305 | 2.0 | 5.0 | 0.00 | 0.00 | 0.00 | 17 | 1015.0 |
| 20260510031621 | 65 | 305 | 2.0 | 5.0 | 0.00 | 0.00 | 0.00 | 17 | 1015.0 |
| 20260510031124 | 66 | 305 | 2.0 | 5.0 | 0.00 | 0.00 | 0.00 | 17 | 1015.0 |
| 20260510030621 | 66 | 305 | 2.0 | 5.0 | 0.00 | 0.00 | 0.00 | 17 | 1015.1 |
| 20260510030105 | 66 | 305 | 2.0 | 5.0 | 0.00 | 0.00 | 0.00 | 16 | 1014.9 |
| 20260510025813 | 66 | 305 | 2.0 | 6.0 | 0.00 | 0.00 | 0.00 | 16 | 1014.8 |
| 20260510025051 | 66 | 304 | 2.0 | 6.0 | 0.00 | 0.00 | 0.00 | 16 | 1014.9 |
| 20260510024550 | 67 | 304 | 2.0 | 5.0 | 0.00 | 0.00 | 0.00 | 16 | 1014.9 |
| 20260510024044 | 67 | 304 | 2.0 | 5.0 | 0.00 | 0.00 | 0.00 | 16 | 1015.0 |
| 20260510023541 | 67 | 304 | 2.0 | 5.0 | 0.00 | 0.00 | 0.00 | 16 | 1015.0 |
| 20260510023039 | 68 | 304 | 1.0 | 4.0 | 0.00 | 0.00 | 0.00 | 15 | 1015.3 |
| 20260510022533 | 69 | 304 | 0.0 | 2.0 | 0.00 | 0.00 | 0.00 | 15 | 1015.5 |
| 20260510022259 | 70 | 304 | 1.0 | 5.0 | 0.00 | 0.00 | 0.00 | 15 | 1015.9 |
| 20260510021527 | 71 | 304 | 2.0 | 5.0 | 0.00 | 0.00 | 0.00 | 14 | 1016.0 |
| 20260510021026 | 71 | 304 | 4.0 | 7.0 | 0.00 | 0.00 | 0.00 | 14 | 1016.2 |
| 20260510020526 | 72 | 304 | 4.0 | 9.0 | 0.00 | 0.00 | 0.00 | 14 | 1016.3 |
| 20260510020026 | 72 | 311 | 4.0 | 9.0 | 0.00 | 0.00 | 0.00 | 13 | 1016.3 |
| 20260510015524 | 73 | 300 | 4.0 | 11.0 | 0.00 | 0.00 | 0.00 | 13 | 1016.7 |
| 20260510015023 | 73 | 284 | 5.0 | 11.0 | 0.00 | 0.00 | 0.00 | 13 | 1016.7 |
| 20260510014524 | 74 | 294 | 5.0 | 11.0 | 0.00 | 0.00 | 0.00 | 13 | 1017.0 |
| 20260510014020 | 74 | 289 | 7.0 | 14.0 | 0.00 | 0.00 | 0.00 | 13 | 1017.2 |
| 20260510013739 | 75 | 290 | 8.0 | 15.0 | 0.00 | 0.00 | 0.00 | 13 | 1017.2 |
| 20260510013017 | 75 | 295 | 8.0 | 16.0 | 0.00 | 0.00 | 0.00 | 12 | 1017.4 |
| 20260510012512 | 76 | 283 | 6.0 | 16.0 | 0.00 | 0.00 | 0.00 | 12 | 1017.4 |
| 20260510012011 | 77 | 296 | 5.0 | 12.0 | 0.00 | 0.00 | 0.00 | 12 | 1017.8 |
| 20260510011505 | 77 | 280 | 8.0 | 16.0 | 0.00 | 0.00 | 0.00 | 12 | 1017.8 |
| 20260510011005 | 77 | 280 | 9.0 | 19.0 | 0.00 | 0.00 | 0.00 | 12 | 1017.9 |
| 20260510010731 | 77 | 246 | 8.0 | 19.0 | 0.00 | 0.00 | 0.00 | 12 | 1018.0 |
| 20260510010004 | 78 | 294 | 9.0 | 19.0 | 0.00 | 0.00 | 0.00 | 11 | 1018.0 |
| 20260510005503 | 78 | 280 | 9.0 | 19.0 | 0.00 | 0.00 | 0.00 | 11 | 1018.4 |
| 20260510005003 | 78 | 286 | 8.0 | 14.0 | 0.00 | 0.00 | 0.00 | 11 | 1018.4 |
| 20260510004501 | 79 | 298 | 8.0 | 14.0 | 0.00 | 0.00 | 0.00 | 11 | 1018.7 |
| 20260510004001 | 79 | 321 | 10.0 | 20.0 | 0.00 | 0.00 | 0.00 | 11 | 1018.5 |
| 20260510003501 | 79 | 306 | 11.0 | 24.0 | 0.00 | 0.00 | 0.00 | 11 | 1018.5 |
| 20260510003219 | 80 | 313 | 11.0 | 21.0 | 0.00 | 0.00 | 0.00 | 10 | 1019.0 |
| 20260510003207 | 80 | 289 | 11.0 | 24.0 | 0.00 | 0.00 | 0.00 | 11 | 1018.8 |
| 20260510001956 | 81 | 286 | 11.0 | 21.0 | 0.00 | 0.00 | 0.00 | 10 | 1019.3 |
| 20260510001456 | 81 | 289 | 10.0 | 20.0 | 0.00 | 0.00 | 0.00 | 10 | 1019.3 |
| 20260510001218 | 82 | 286 | 8.0 | 20.0 | 0.00 | 0.00 | 0.00 | 10 | 1019.5 |
| 20260510000457 | 82 | 307 | 8.0 | 16.0 | 0.00 | 0.00 | 0.00 | 10 | 1019.6 |
| 20260509235956 | 82 | 213 | 9.0 | 19.0 | 0.00 | 0.00 | 0.00 | 10 | 1019.5 |
| 20260509235454 | 82 | 265 | 10.0 | 19.0 | 0.00 | 0.00 | 0.00 | 10 | 1019.5 |
| 20260509234955 | 82 | 309 | 10.0 | 20.0 | 0.00 | 0.00 | 0.00 | 10 | 1019.4 |
| 20260509234455 | 81 | 273 | 11.0 | 21.0 | 0.00 | 0.00 | 0.00 | 10 | 1019.3 |
| 20260509233956 | 80 | 312 | 12.0 | 22.0 | 0.00 | 0.00 | 0.00 | 10 | 1019.1 |
| 20260509233718 | 81 | 298 | 10.0 | 22.0 | 0.00 | 0.00 | 0.00 | 10 | 1019.3 |
| 20260509233441 | 80 | 313 | 8.0 | 14.0 | 0.00 | 0.00 | 0.00 | 11 | 1019.0 |
| 20260509232456 | 80 | 240 | 10.0 | 20.0 | 0.00 | 0.00 | 0.00 | 10 | 1018.9 |
| 20260509231952 | 81 | 302 | 11.0 | 20.0 | 0.00 | 0.00 | 0.00 | 10 | 1019.4 |
| 20260509231452 | 82 | 271 | 11.0 | 24.0 | 0.00 | 0.00 | 0.00 | 9 | 1019.5 |
| 20260509231220 | 83 | 326 | 10.0 | 24.0 | 0.00 | 0.00 | 0.00 | 8 | 1020.1 |
| 20260509230456 | 84 | 250 | 9.0 | 20.0 | 0.00 | 0.00 | 0.00 | 9 | 1020.1 |
| 20260509230228 | 84 | 289 | 7.0 | 19.0 | 0.00 | 0.00 | 0.00 | 10 | 1020.2 |
| 20260509225705 | 84 | 315 | 8.0 | 16.0 | 0.00 | 0.00 | 0.00 | 10 | 1020.4 |
| 20260509224948 | 83 | 302 | 10.0 | 20.0 | 0.00 | 0.00 | 0.00 | 10 | 1020.0 |
| 20260509224437 | 84 | 311 | 11.0 | 20.0 | 0.00 | 0.00 | 0.00 | 9 | 1020.2 |
| 20260509223932 | 85 | 304 | 10.0 | 19.0 | 0.00 | 0.00 | 0.00 | 9 | 1020.7 |
| 20260509223428 | 85 | 288 | 9.0 | 20.0 | 0.00 | 0.00 | 0.00 | 10 | 1020.8 |
| 20260509223135 | 85 | 259 | 9.0 | 20.0 | 0.00 | 0.00 | 0.00 | 10 | 1021.0 |
| 20260509222411 | 85 | 225 | 9.0 | 20.0 | 0.00 | 0.00 | 0.00 | 10 | 1020.6 |
| 20260509221904 | 85 | 257 | 9.0 | 20.0 | 0.00 | 0.00 | 0.00 | 10 | 1020.8 |
| 20260509221353 | 85 | 254 | 9.0 | 16.0 | 0.00 | 0.00 | 0.00 | 10 | 1020.6 |
| 20260509221329 | 84 | 287 | 11.0 | 25.0 | 0.00 | 0.00 | 0.00 | 9 | 1020.6 |
| 20260509220346 | 84 | 300 | 10.0 | 25.0 | 0.00 | 0.00 | 0.00 | 9 | 1020.7 |
| 20260509215846 | 85 | 296 | 8.0 | 19.0 | 0.00 | 0.00 | 0.00 | 10 | 1021.0 |
| 20260509215346 | 85 | 338 | 8.0 | 19.0 | 0.00 | 0.00 | 0.00 | 10 | 1020.8 |
| 20260509214843 | 85 | 264 | 8.0 | 18.0 | 0.00 | 0.00 | 0.00 | 10 | 1020.8 |
| 20260509214342 | 85 | 294 | 11.0 | 25.0 | 0.00 | 0.00 | 0.00 | 10 | 1020.7 |
| 20260509213840 | 85 | 296 | 11.0 | 25.0 | 0.00 | 0.00 | 0.00 | 10 | 1021.0 |
| 20260509213341 | 85 | 292 | 9.0 | 20.0 | 0.00 | 0.00 | 0.00 | 9 | 1021.2 |
| 20260509212840 | 85 | 251 | 8.0 | 14.0 | 0.00 | 0.00 | 0.00 | 10 | 1021.2 |
| 20260509212340 | 85 | 317 | 8.0 | 16.0 | 0.00 | 0.00 | 0.00 | 11 | 1021.3 |
| 20260509212103 | 85 | 318 | 7.0 | 16.0 | 0.00 | 0.00 | 0.00 | 11 | 1021.6 |
| 20260509211338 | 84 | 310 | 7.0 | 14.0 | 0.00 | 0.00 | 0.00 | 11 | 1021.3 |
| 20260509210838 | 83 | 290 | 9.0 | 20.0 | 0.00 | 0.00 | 0.00 | 11 | 1020.8 |
| 20260509210337 | 82 | 298 | 9.0 | 20.0 | 0.00 | 0.00 | 0.00 | 12 | 1020.8 |
| 20260509205832 | 84 | 300 | 8.0 | 18.0 | 0.00 | 0.00 | 0.00 | 11 | 1021.3 |
| 20260509205332 | 83 | 296 | 11.0 | 22.0 | 0.00 | 0.00 | 0.00 | 12 | 1021.2 |
| 20260509204833 | 82 | 300 | 11.0 | 24.0 | 0.00 | 0.00 | 0.00 | 12 | 1021.0 |
| 20260509204336 | 84 | 294 | 9.0 | 24.0 | 0.00 | 0.00 | 0.00 | 11 | 1021.5 |
| 20260509203838 | 83 | 335 | 8.0 | 15.0 | 0.00 | 0.00 | 0.00 | 12 | 1021.6 |
| 20260509203331 | 85 | 282 | 10.0 | 21.0 | 0.00 | 0.00 | 0.00 | 11 | 1022.1 |
| 20260509202832 | 84 | 271 | 10.0 | 21.0 | 0.00 | 0.00 | 0.00 | 11 | 1022.1 |
| 20260509202324 | 85 | 284 | 9.0 | 20.0 | 0.00 | 0.00 | 0.00 | 12 | 1022.2 |
| 20260509202041 | 84 | 349 | 8.0 | 14.0 | 0.00 | 0.00 | 0.00 | 12 | 1022.1 |
| 20260509201320 | 84 | 333 | 9.0 | 18.0 | 0.00 | 0.00 | 0.00 | 12 | 1022.2 |
| 20260509200820 | 83 | 327 | 10.0 | 19.0 | 0.00 | 0.00 | 0.00 | 12 | 1022.1 |
| 20260509200319 | 83 | 267 | 9.0 | 19.0 | 0.00 | 0.00 | 0.00 | 12 | 1022.2 |
| 20260509195818 | 84 | 302 | 8.0 | 18.0 | 0.00 | 0.00 | 0.00 | 12 | 1022.4 |
| 20260509195319 | 83 | 290 | 10.0 | 22.0 | 0.00 | 0.00 | 0.00 | 11 | 1022.2 |
| 20260509194818 | 83 | 308 | 12.0 | 22.0 | 0.00 | 0.00 | 0.00 | 12 | 1022.1 |
| 20260509194537 | 82 | 304 | 8.0 | 22.0 | 0.00 | 0.00 | 0.00 | 11 | 1021.7 |
| 20260509193814 | 82 | 317 | 7.0 | 21.0 | 0.00 | 0.00 | 0.00 | 12 | 1021.5 |
| 20260509193311 | 82 | 290 | 8.0 | 21.0 | 0.00 | 0.00 | 0.00 | 11 | 1021.6 |
| 20260509193303 | 80 | 315 | 8.0 | 16.0 | 0.00 | 0.00 | 0.00 | 13 | 1021.0 |
| 20260509192306 | 80 | 340 | 9.0 | 16.0 | 0.00 | 0.00 | 0.00 | 12 | 1021.1 |
| 20260509192237 | 82 | 339 | 9.0 | 19.0 | 0.00 | 0.00 | 0.00 | 11 | 1021.8 |
| 20260509191509 | 83 | 244 | 10.0 | 19.0 | 0.00 | 0.00 | 0.00 | 12 | 1022.3 |
| 20260509190751 | 83 | 252 | 8.0 | 16.0 | 0.00 | 0.00 | 0.00 | 12 | 1022.3 |
| 20260509190250 | 82 | 273 | 5.0 | 13.0 | 0.00 | 0.00 | 0.00 | 12 | 1022.1 |
| 20260509185749 | 81 | 213 | 5.0 | 10.0 | 0.00 | 0.00 | 0.00 | 13 | 1021.6 |
| 20260509185243 | 80 | 302 | 4.0 | 10.0 | 0.00 | 0.00 | 0.00 | 15 | 1021.5 |
| 20260509184742 | 79 | 126 | 4.0 | 9.0 | 0.00 | 0.00 | 0.00 | 15 | 1021.2 |
| 20260509184239 | 79 | 122 | 2.0 | 8.0 | 0.00 | 0.00 | 0.00 | 14 | 1021.1 |
| 20260509183959 | 78 | 204 | 2.0 | 5.0 | 0.00 | 0.00 | 0.00 | 15 | 1021.1 |
| 20260509183503 | 79 | 204 | 2.0 | 6.0 | 0.00 | 0.00 | 0.00 | 15 | 1021.3 |
| 20260509182735 | 80 | 220 | 3.0 | 10.0 | 0.00 | 0.00 | 0.00 | 14 | 1021.7 |
| 20260509182236 | 80 | 247 | 2.0 | 10.0 | 0.00 | 0.00 | 0.00 | 16 | 1021.8 |
| 20260509181735 | 79 | 176 | 2.0 | 7.0 | 0.00 | 0.00 | 0.00 | 16 | 1021.7 |
| 20260509181233 | 78 | 178 | 2.0 | 8.0 | 0.00 | 0.00 | 0.00 | 16 | 1021.3 |
| 20260509180733 | 78 | 191 | 1.0 | 8.0 | 0.00 | 0.00 | 0.00 | 16 | 1021.2 |
| 20260509180233 | 77 | 104 | 1.0 | 5.0 | 0.00 | 0.00 | 0.00 | 17 | 1021.2 |
| 20260509175732 | 77 | 98 | 3.0 | 6.0 | 0.00 | 0.00 | 0.00 | 16 | 1021.1 |
| 20260509175231 | 77 | 97 | 4.0 | 9.0 | 0.00 | 0.00 | 0.00 | 16 | 1021.2 |
| 20260509174730 | 77 | 69 | 4.0 | 10.0 | 0.00 | 0.00 | 0.00 | 15 | 1021.5 |
| 20260509174223 | 77 | 51 | 2.0 | 10.0 | 0.00 | 0.00 | 0.00 | 16 | 1021.5 |
| 20260509173718 | 77 | 141 | 3.0 | 8.0 | 0.00 | 0.00 | 0.00 | 16 | 1021.5 |
| 20260509173216 | 77 | 141 | 2.0 | 8.0 | 0.00 | 0.00 | 0.00 | 16 | 1021.6 |
| 20260509172711 | 77 | 150 | 3.0 | 9.0 | 0.00 | 0.00 | 0.00 | 16 | 1021.6 |
| 20260509172210 | 77 | 150 | 4.0 | 9.0 | 0.00 | 0.00 | 0.00 | 15 | 1021.7 |
| 20260509171705 | 77 | 102 | 3.0 | 9.0 | 0.00 | 0.00 | 0.00 | 16 | 1021.9 |
| 20260509171206 | 77 | 67 | 5.0 | 10.0 | 0.00 | 0.00 | 0.00 | 17 | 1021.9 |
| 20260509170703 | 78 | 107 | 6.0 | 11.0 | 0.00 | 0.00 | 0.00 | 16 | 1021.9 |
| 20260509170206 | 78 | 63 | 6.0 | 11.0 | 0.00 | 0.00 | 0.00 | 16 | 1022.2 |
| 20260509165702 | 78 | 63 | 5.0 | 11.0 | 0.00 | 0.00 | 0.00 | 17 | 1022.2 |
| 20260509165203 | 78 | 83 | 5.0 | 11.0 | 0.00 | 0.00 | 0.00 | 17 | 1022.1 |
| 20260509164703 | 78 | 50 | 5.0 | 10.0 | 0.00 | 0.00 | 0.00 | 19 | 1022.2 |
| 20260509164159 | 78 | 84 | 5.0 | 10.0 | 0.00 | 0.00 | 0.00 | 19 | 1022.2 |
| 20260509163659 | 77 | 70 | 5.0 | 11.0 | 0.00 | 0.00 | 0.00 | 20 | 1021.9 |
| 20260509163159 | 76 | 69 | 4.0 | 11.0 | 0.00 | 0.00 | 0.00 | 19 | 1021.7 |
| 20260509162653 | 75 | 104 | 3.0 | 8.0 | 0.00 | 0.00 | 0.00 | 20 | 1021.3 |
| 20260509162153 | 75 | 104 | 4.0 | 8.0 | 0.00 | 0.00 | 0.00 | 20 | 1021.2 |
| 20260509161650 | 75 | 126 | 3.0 | 7.0 | 0.00 | 0.00 | 0.00 | 20 | 1021.2 |
| 20260509161150 | 75 | 177 | 2.0 | 6.0 | 0.00 | 0.00 | 0.00 | 19 | 1021.3 |
| 20260509160909 | 74 | 186 | 3.0 | 8.0 | 0.00 | 0.00 | 0.00 | 19 | 1021.1 |
| 20260509160143 | 74 | 186 | 3.0 | 8.0 | 0.00 | 0.00 | 0.00 | 21 | 1020.8 |
| 20260509155639 | 73 | 186 | 4.0 | 7.0 | 0.00 | 0.00 | 0.00 | 22 | 1020.6 |
| 20260509155401 | 72 | 138 | 3.0 | 7.0 | 0.00 | 0.00 | 0.00 | 22 | 1020.2 |
| 20260509154635 | 71 | 161 | 3.0 | 7.0 | 0.00 | 0.00 | 0.00 | 23 | 1019.9 |
| 20260509154132 | 70 | 149 | 4.0 | 9.0 | 0.00 | 0.00 | 0.00 | 22 | 1019.7 |
| 20260509153631 | 70 | 148 | 4.0 | 9.0 | 0.00 | 0.00 | 0.00 | 23 | 1019.7 |
| 20260509153131 | 70 | 125 | 3.0 | 8.0 | 0.00 | 0.00 | 0.00 | 23 | 1019.5 |
| 20260509152631 | 69 | 104 | 2.0 | 6.0 | 0.00 | 0.00 | 0.00 | 24 | 1019.6 |
| 20260509152351 | 69 | 88 | 1.0 | 6.0 | 0.00 | 0.00 | 0.00 | 25 | 1019.4 |
| 20260509151631 | 69 | 51 | 2.0 | 7.0 | 0.00 | 0.00 | 0.00 | 26 | 1019.1 |
| 20260509151130 | 68 | 42 | 3.0 | 7.0 | 0.00 | 0.00 | 0.00 | 25 | 1019.1 |
| 20260509150631 | 67 | 42 | 2.0 | 6.0 | 0.00 | 0.00 | 0.00 | 26 | 1019.0 |
| 20260509150350 | 67 | 41 | 3.0 | 7.0 | 0.00 | 0.00 | 0.00 | 27 | 1018.8 |
| 20260509145629 | 67 | 39 | 4.0 | 7.0 | 0.00 | 0.00 | 0.00 | 26 | 1018.8 |
| 20260509145120 | 66 | 34 | 3.0 | 6.0 | 0.00 | 0.00 | 0.00 | 26 | 1018.4 |
| 20260509144840 | 66 | 32 | 3.0 | 7.0 | 0.00 | 0.00 | 0.00 | 26 | 1018.2 |
| 20260509144114 | 66 | 33 | 3.0 | 7.0 | 0.00 | 0.00 | 0.00 | 27 | 1018.3 |
| 20260509143607 | 65 | 29 | 2.0 | 6.0 | 0.00 | 0.00 | 0.00 | 27 | 1018.3 |
| 20260509143103 | 65 | 25 | 1.0 | 5.0 | 0.00 | 0.00 | 0.00 | 27 | 1017.9 |
| 20260509142603 | 65 | 24 | 1.0 | 3.0 | 0.00 | 0.00 | 0.00 | 27 | 1017.9 |
| 20260509142556 | 64 | 24 | 1.0 | 3.0 | 0.00 | 0.00 | 0.00 | 28 | 1017.8 |
| 20260509141604 | 64 | 24 | 1.0 | 3.0 | 0.00 | 0.00 | 0.00 | 28 | 1017.6 |
| 20260509141101 | 63 | 24 | 1.0 | 6.0 | 0.00 | 0.00 | 0.00 | 28 | 1017.4 |
| 20260509140555 | 63 | 24 | 1.0 | 6.0 | 0.00 | 0.00 | 0.00 | 29 | 1017.2 |
| 20260509140055 | 62 | 24 | 1.0 | 5.0 | 0.00 | 0.00 | 0.00 | 30 | 1017.1 |
| 20260509135550 | 62 | 24 | 2.0 | 6.0 | 0.00 | 0.00 | 0.00 | 30 | 1017.0 |
| 20260509135525 | 60 | 24 | 1.0 | 6.0 | 0.00 | 0.00 | 0.00 | 31 | 1016.3 |
| 20260509134548 | 59 | 349 | 0.0 | 3.0 | 0.00 | 0.00 | 0.00 | 34 | 1016.0 |
| 20260509134048 | 57 | 349 | 0.0 | 0.0 | 0.00 | 0.00 | 0.00 | 35 | 1015.0 |
| 20260509133535 | 56 | 349 | 0.0 | 0.0 | 0.00 | 0.00 | 0.00 | 37 | 1014.4 |
| 20260509133037 | 54 | 349 | 0.0 | 0.0 | 0.00 | 0.00 | 0.00 | 39 | 1013.6 |
| 20260509132531 | 53 | 349 | 0.0 | 0.0 | 0.00 | 0.00 | 0.00 | 42 | 1012.9 |
| 20260509132028 | 51 | 349 | 0.0 | 0.0 | 0.00 | 0.00 | 0.00 | 43 | 1012.3 |
| 20260509131522 | 49 | 349 | 0.0 | 0.0 | 0.00 | 0.00 | 0.00 | 44 | 1011.6 |
| 20260509131230 | 48 | 349 | 0.0 | 0.0 | 0.00 | 0.00 | 0.00 | 46 | 1010.8 |
| 20260509130502 | 46 | 349 | 0.0 | 0.0 | 0.00 | 0.00 | 0.00 | 48 | 1010.2 |
| 20260509125958 | 45 | 349 | 0.0 | 0.0 | 0.00 | 0.00 | 0.00 | 50 | 1009.5 |
| 20260509125447 | 44 | 349 | 0.0 | 0.0 | 0.00 | 0.00 | 0.00 | 50 | 1008.9 |
| 20260509124943 | 43 | 349 | 0.0 | 0.0 | 0.00 | 0.00 | 0.00 | 49 | 1008.6 |
| 20260509124432 | 43 | 349 | 1.0 | 3.0 | 0.00 | 0.00 | 0.00 | 49 | 1008.3 |
| 20260509123931 | 42 | 349 | 1.0 | 3.0 | 0.00 | 0.00 | 0.00 | 49 | 1008.2 |
| 20260509123431 | 42 | 349 | 1.0 | 2.0 | 0.00 | 0.00 | 0.00 | 49 | 1008.2 |
| 20260509122931 | 43 | 349 | 0.0 | 2.0 | 0.00 | 0.00 | 0.00 | 48 | 1008.2 |
| 20260509122429 | 43 | 349 | 1.0 | 3.0 | 0.00 | 0.00 | 0.00 | 48 | 1008.2 |
| 20260509121930 | 43 | 349 | 1.0 | 5.0 | 0.00 | 0.00 | 0.00 | 48 | 1008.3 |
| 20260509121430 | 43 | 349 | 1.0 | 5.0 | 0.00 | 0.00 | 0.00 | 47 | 1008.1 |
| 20260509120935 | 44 | 349 | 1.0 | 4.0 | 0.00 | 0.00 | 0.00 | 47 | 1008.4 |
| 20260509120428 | 44 | 349 | 2.0 | 5.0 | 0.00 | 0.00 | 0.00 | 46 | 1008.4 |